Retour au catalogue

GLOBALSTAR M085

ActifCommunicationsLEO
NORAD 37742·PAYLOAD·🇺🇸 United States

Lancé Jul 13, 2011 depuis Baikonur Cosmodrome

Loading…

Prochains Passages (prochaines 24 heures)

TLE

FraisSource: Space-Track

Époque: Sep 14, 2026, 12:45 UTC

1 37742U 11033D   26257.53169773 -.00000099  00000-0  25841-4 0  9997
2 37742  52.0120 281.2848 0000476 115.5902  48.9601 12.62265280701075

Suivez GLOBALSTAR M085 en temps réel avec AllMySat

Download on the App Store